Time,TemperatureF,DewpointF,PressureIn,WindDirection,WindDirectionDegrees,WindSpeedMPH,WindSpeedGustMPH,Humidity,HourlyPrecipIn,Conditions,Clouds,dailyrainin,SoftwareType,DateUTC
2013-06-03 00:04:00,49.2,45.8,30.04,NE,50,0.0,8.0,88,0.00,,,0.00,Wunderground v.1.15,2013-06-03 05:04:00,
2013-06-03 00:10:00,49.1,45.7,30.04,NE,50,0.0,8.0,88,0.00,,,0.00,Wunderground v.1.15,2013-06-03 05:10:00,
2013-06-03 00:16:00,49.1,45.7,30.04,NE,50,0.0,8.0,88,0.00,,,0.00,Wunderground v.1.15,2013-06-03 05:16:00,
2013-06-03 00:22:00,48.9,45.5,30.05,NE,50,0.0,8.0,88,0.00,,,0.00,Wunderground v.1.15,2013-06-03 05:22:00,
2013-06-03 00:28:00,48.7,45.3,30.05,NE,50,0.0,8.0,88,0.00,,,0.00,Wunderground v.1.15,2013-06-03 05:28:00,
2013-06-03 00:34:00,48.5,45.4,30.05,NE,50,0.0,8.0,89,0.00,,,0.00,Wunderground v.1.15,2013-06-03 05:34:00,
2013-06-03 00:40:00,48.5,45.7,30.05,NE,50,0.0,8.0,90,0.00,,,0.00,Wunderground v.1.15,2013-06-03 05:40:00,
2013-06-03 00:46:00,48.4,45.6,30.05,NE,50,0.0,8.0,90,0.00,,,0.00,Wunderground v.1.15,2013-06-03 05:46:00,
2013-06-03 00:52:00,48.2,45.4,30.05,NE,50,0.0,8.0,90,0.00,,,0.00,Wunderground v.1.15,2013-06-03 05:52:00,
2013-06-03 00:58:00,48.1,45.6,30.05,NE,50,0.0,8.0,91,0.00,,,0.00,Wunderground v.1.15,2013-06-03 05:58:00,
2013-06-03 01:04:00,48.0,45.5,30.05,NE,50,0.0,8.0,91,0.00,,,0.00,Wunderground v.1.15,2013-06-03 06:04:00,
2013-06-03 01:10:00,47.8,45.3,30.05,NE,50,0.0,8.0,91,0.00,,,0.00,Wunderground v.1.15,2013-06-03 06:10:00,
2013-06-03 01:16:00,47.6,45.1,30.05,NE,50,0.0,8.0,91,0.00,,,0.00,Wunderground v.1.15,2013-06-03 06:16:00,
2013-06-03 01:22:00,47.5,45.3,30.05,NE,50,0.0,8.0,92,0.00,,,0.00,Wunderground v.1.15,2013-06-03 06:22:00,
2013-06-03 01:28:00,47.5,45.3,30.05,NE,50,0.0,8.0,92,0.00,,,0.00,Wunderground v.1.15,2013-06-03 06:28:00,
2013-06-03 01:34:00,47.4,45.2,30.05,NE,50,0.0,8.0,92,0.00,,,0.00,Wunderground v.1.15,2013-06-03 06:34:00,
2013-06-03 01:40:00,47.3,45.4,30.05,NE,50,0.0,8.0,93,0.00,,,0.00,Wunderground v.1.15,2013-06-03 06:40:00,
2013-06-03 01:46:00,47.2,45.3,30.05,NE,50,0.0,8.0,93,0.00,,,0.00,Wunderground v.1.15,2013-06-03 06:46:00,
2013-06-03 01:52:00,47.0,45.1,30.05,NE,50,0.0,8.0,93,0.00,,,0.00,Wunderground v.1.15,2013-06-03 06:52:00,
2013-06-03 01:58:00,46.9,45.3,30.05,NE,50,0.0,8.0,94,0.00,,,0.00,Wunderground v.1.15,2013-06-03 06:58:00,
2013-06-03 02:04:00,46.9,45.3,30.05,NE,50,0.0,8.0,94,0.00,,,0.00,Wunderground v.1.15,2013-06-03 07:04:00,
2013-06-03 02:10:00,46.7,45.1,30.06,NE,50,0.0,8.0,94,0.00,,,0.00,Wunderground v.1.15,2013-06-03 07:10:00,
2013-06-03 02:16:00,46.5,44.9,30.06,NE,50,0.0,8.0,94,0.00,,,0.00,Wunderground v.1.15,2013-06-03 07:16:00,
2013-06-03 02:22:00,46.4,44.8,30.06,NE,50,0.0,8.0,94,0.00,,,0.00,Wunderground v.1.15,2013-06-03 07:22:00,
2013-06-03 02:28:00,46.4,45.0,30.06,NE,50,0.0,8.0,95,0.00,,,0.00,Wunderground v.1.15,2013-06-03 07:28:00,
2013-06-03 02:34:00,46.4,45.0,30.06,NE,50,0.0,8.0,95,0.00,,,0.00,Wunderground v.1.15,2013-06-03 07:34:00,
2013-06-03 02:40:00,46.2,44.8,30.06,NE,50,0.0,8.0,95,0.00,,,0.00,Wunderground v.1.15,2013-06-03 07:40:00,
2013-06-03 02:46:00,46.1,44.7,30.06,NE,50,0.0,8.0,95,0.00,,,0.00,Wunderground v.1.15,2013-06-03 07:46:00,
2013-06-03 02:52:00,46.0,44.9,30.06,NE,50,0.0,8.0,96,0.00,,,0.00,Wunderground v.1.15,2013-06-03 07:52:00,
2013-06-03 02:58:00,46.0,44.9,30.06,NE,50,0.0,8.0,96,0.00,,,0.00,Wunderground v.1.15,2013-06-03 07:58:00,
2013-06-03 03:04:00,45.9,44.8,30.06,NE,50,0.0,8.0,96,0.00,,,0.00,Wunderground v.1.15,2013-06-03 08:04:00,
2013-06-03 03:10:00,45.9,44.8,30.06,NE,50,0.0,8.0,96,0.00,,,0.00,Wunderground v.1.15,2013-06-03 08:10:00,
2013-06-03 03:16:00,45.8,44.7,30.06,NE,50,0.0,8.0,96,0.00,,,0.00,Wunderground v.1.15,2013-06-03 08:16:00,
2013-06-03 03:22:00,45.8,44.7,30.05,NE,50,0.0,8.0,96,0.00,,,0.00,Wunderground v.1.15,2013-06-03 08:22:00,
2013-06-03 03:28:00,45.7,44.6,30.05,NE,50,0.0,8.0,96,0.00,,,0.00,Wunderground v.1.15,2013-06-03 08:28:00,
2013-06-03 03:34:00,45.6,44.5,30.06,NE,50,0.0,8.0,96,0.00,,,0.00,Wunderground v.1.15,2013-06-03 08:34:00,
2013-06-03 03:40:00,45.5,44.4,30.06,NE,50,0.0,8.0,96,0.00,,,0.00,Wunderground v.1.15,2013-06-03 08:40:00,
2013-06-03 03:46:00,45.3,44.2,30.06,NE,50,0.0,8.0,96,0.00,,,0.00,Wunderground v.1.15,2013-06-03 08:46:00,
2013-06-03 03:52:00,45.2,44.1,30.06,NE,50,0.0,8.0,96,0.00,,,0.00,Wunderground v.1.15,2013-06-03 08:52:00,
2013-06-03 03:58:00,44.9,43.8,30.06,NE,50,0.0,8.0,96,0.00,,,0.00,Wunderground v.1.15,2013-06-03 08:58:00,
2013-06-03 04:04:00,44.8,43.7,30.06,NE,50,0.0,8.0,96,0.00,,,0.00,Wunderground v.1.15,2013-06-03 09:04:00,
2013-06-03 04:10:00,44.7,43.6,30.05,NE,50,0.0,8.0,96,0.00,,,0.00,Wunderground v.1.15,2013-06-03 09:10:00,
2013-06-03 04:16:00,44.7,43.6,30.05,NE,50,0.0,8.0,96,0.00,,,0.00,Wunderground v.1.15,2013-06-03 09:16:00,
2013-06-03 04:22:00,44.6,43.8,30.06,NE,50,0.0,8.0,97,0.00,,,0.00,Wunderground v.1.15,2013-06-03 09:22:00,
2013-06-03 04:28:00,44.7,43.9,30.06,NE,50,0.0,8.0,97,0.00,,,0.00,Wunderground v.1.15,2013-06-03 09:28:00,
2013-06-03 04:34:00,44.5,43.7,30.06,NE,50,0.0,8.0,97,0.00,,,0.00,Wunderground v.1.15,2013-06-03 09:34:00,
2013-06-03 04:40:00,44.4,43.6,30.06,NE,50,0.0,8.0,97,0.00,,,0.00,Wunderground v.1.15,2013-06-03 09:40:00,
2013-06-03 04:46:00,44.3,43.5,30.06,NE,50,0.0,8.0,97,0.00,,,0.00,Wunderground v.1.15,2013-06-03 09:46:00,
2013-06-03 04:52:00,44.3,43.5,30.06,NE,50,0.0,8.0,97,0.00,,,0.00,Wunderground v.1.15,2013-06-03 09:52:00,
2013-06-03 04:58:00,44.3,43.5,30.06,NE,50,0.0,8.0,97,0.00,,,0.00,Wunderground v.1.15,2013-06-03 09:58:00,
2013-06-03 05:04:00,44.3,43.5,30.06,NE,50,0.0,8.0,97,0.00,,,0.00,Wunderground v.1.15,2013-06-03 10:04:00,
2013-06-03 05:10:00,44.2,43.4,30.06,NE,50,0.0,8.0,97,0.00,,,0.00,Wunderground v.1.15,2013-06-03 10:10:00,
2013-06-03 05:16:00,44.1,43.3,30.06,NE,50,0.0,8.0,97,0.00,,,0.00,Wunderground v.1.15,2013-06-03 10:16:00,
2013-06-03 05:22:00,44.2,43.4,30.06,NE,50,0.0,8.0,97,0.00,,,0.00,Wunderground v.1.15,2013-06-03 10:22:00,
2013-06-03 05:28:00,44.2,43.4,30.06,NE,50,0.0,8.0,97,0.00,,,0.00,Wunderground v.1.15,2013-06-03 10:28:00,
2013-06-03 05:34:00,44.0,43.2,30.06,NE,50,0.0,8.0,97,0.00,,,0.00,Wunderground v.1.15,2013-06-03 10:34:00,
2013-06-03 05:40:00,44.0,43.2,30.07,NE,50,0.0,8.0,97,0.00,,,0.00,Wunderground v.1.15,2013-06-03 10:40:00,
2013-06-03 05:46:00,43.9,43.1,30.07,NE,50,0.0,8.0,97,0.00,,,0.00,Wunderground v.1.15,2013-06-03 10:46:00,
2013-06-03 05:52:00,44.1,43.6,30.07,NE,50,0.0,8.0,98,0.00,,,0.00,Wunderground v.1.15,2013-06-03 10:52:00,
2013-06-03 05:58:00,44.2,43.7,30.07,NE,50,0.0,8.0,98,0.00,,,0.00,Wunderground v.1.15,2013-06-03 10:58:00,
2013-06-03 06:04:00,44.2,43.7,30.07,NE,50,0.0,8.0,98,0.00,,,0.00,Wunderground v.1.15,2013-06-03 11:04:00,
2013-06-03 06:10:00,44.2,43.7,30.07,NE,51,0.0,8.0,98,0.00,,,0.00,Wunderground v.1.15,2013-06-03 11:10:00,
2013-06-03 06:16:00,44.5,44.0,30.07,NE,50,0.0,8.0,98,0.00,,,0.00,Wunderground v.1.15,2013-06-03 11:16:00,
2013-06-03 06:22:00,44.8,44.3,30.07,NE,50,0.0,8.0,98,0.00,,,0.00,Wunderground v.1.15,2013-06-03 11:22:00,
2013-06-03 06:28:00,44.9,44.4,30.08,NE,50,0.0,8.0,98,0.00,,,0.00,Wunderground v.1.15,2013-06-03 11:28:00,
2013-06-03 06:33:00,45.1,44.6,30.08,NE,50,0.0,8.0,98,0.00,,,0.00,Wunderground v.1.15,2013-06-03 11:33:00,
2013-06-03 06:40:00,45.3,44.8,30.08,NE,50,0.0,8.0,98,0.00,,,0.00,Wunderground v.1.15,2013-06-03 11:40:00,
2013-06-03 06:46:00,46.0,45.5,30.08,NE,50,0.0,8.0,98,0.00,,,0.00,Wunderground v.1.15,2013-06-03 11:46:00,
2013-06-03 06:52:00,46.6,46.1,30.09,NE,50,0.0,8.0,98,0.00,,,0.00,Wunderground v.1.15,2013-06-03 11:52:00,
2013-06-03 06:58:00,47.1,46.6,30.09,NE,50,0.0,8.0,98,0.00,,,0.00,Wunderground v.1.15,2013-06-03 11:58:00,
2013-06-03 07:04:00,48.1,47.6,30.09,NE,50,0.0,8.0,98,0.00,,,0.00,Wunderground v.1.15,2013-06-03 12:04:00,
2013-06-03 07:10:00,49.5,49.0,30.09,NE,50,0.0,8.0,98,0.00,,,0.00,Wunderground v.1.15,2013-06-03 12:10:00,
2013-06-03 07:16:00,50.3,49.8,30.09,NE,50,0.0,8.0,98,0.00,,,0.00,Wunderground v.1.15,2013-06-03 12:16:00,
2013-06-03 07:22:00,51.2,50.7,30.10,NE,50,0.0,8.0,98,0.00,,,0.00,Wunderground v.1.15,2013-06-03 12:22:00,
2013-06-03 07:28:00,52.1,50.7,30.10,NE,50,0.0,8.0,95,0.00,,,0.00,Wunderground v.1.15,2013-06-03 12:28:00,
2013-06-03 07:34:00,53.7,50.2,30.10,NE,50,0.0,8.0,88,0.00,,,0.00,Wunderground v.1.15,2013-06-03 12:34:00,
2013-06-03 07:40:00,54.8,49.1,30.10,SSW,213,0.0,8.0,81,0.00,,,0.00,Wunderground v.1.15,2013-06-03 12:40:00,
2013-06-03 07:46:00,55.7,49.3,30.11,WSW,238,0.0,8.0,79,0.00,,,0.00,Wunderground v.1.15,2013-06-03 12:46:00,
2013-06-03 07:52:00,56.3,48.8,30.11,SSW,200,0.0,8.0,76,0.00,,,0.00,Wunderground v.1.15,2013-06-03 12:52:00,
2013-06-03 07:58:00,56.8,49.0,30.11,WSW,247,0.0,8.0,75,0.00,,,0.00,Wunderground v.1.15,2013-06-03 12:58:00,
2013-06-03 08:04:00,57.1,49.6,30.11,SSE,165,0.0,8.0,76,0.00,,,0.00,Wunderground v.1.15,2013-06-03 13:04:00,
2013-06-03 08:10:00,57.9,48.9,30.11,SSE,152,1.0,8.0,72,0.00,,,0.00,Wunderground v.1.15,2013-06-03 13:10:00,
2013-06-03 08:16:00,57.9,48.6,30.11,SSW,207,1.0,8.0,71,0.00,,,0.00,Wunderground v.1.15,2013-06-03 13:16:00,
2013-06-03 08:22:00,57.5,48.5,30.11,SW,229,1.0,8.0,72,0.00,,,0.00,Wunderground v.1.15,2013-06-03 13:22:00,
2013-06-03 08:28:00,57.5,49.3,30.11,SW,236,2.0,8.0,74,0.00,,,0.00,Wunderground v.1.15,2013-06-03 13:28:00,
2013-06-03 08:34:00,58.2,49.2,30.11,West,273,1.0,8.0,72,0.00,,,0.00,Wunderground v.1.15,2013-06-03 13:34:00,
2013-06-03 08:40:00,58.6,48.1,30.11,WSW,248,1.0,8.0,68,0.00,,,0.00,Wunderground v.1.15,2013-06-03 13:40:00,
2013-06-03 08:46:00,58.9,47.6,30.11,South,184,1.0,8.0,66,0.00,,,0.00,Wunderground v.1.15,2013-06-03 13:46:00,
2013-06-03 08:52:00,59.0,48.1,30.11,SW,235,1.0,8.0,67,0.00,,,0.00,Wunderground v.1.15,2013-06-03 13:52:00,
2013-06-03 08:58:00,59.1,47.3,30.11,WSW,242,1.0,8.0,65,0.00,,,0.00,Wunderground v.1.15,2013-06-03 13:58:00,
2013-06-03 09:04:00,59.2,47.0,30.11,SW,236,2.0,8.0,64,0.00,,,0.00,Wunderground v.1.15,2013-06-03 14:04:00,
2013-06-03 09:10:00,59.4,47.2,30.11,South,169,2.0,2.0,64,0.00,,,0.00,Wunderground v.1.15,2013-06-03 14:10:00,
2013-06-03 09:16:00,59.7,46.7,30.10,WNW,290,1.0,8.0,62,0.00,,,0.00,Wunderground v.1.15,2013-06-03 14:16:00,
2013-06-03 09:22:00,59.9,47.7,30.10,South,190,2.0,8.0,64,0.00,,,0.00,Wunderground v.1.15,2013-06-03 14:22:00,
2013-06-03 09:28:00,60.0,46.5,30.10,WSW,245,2.0,8.0,61,0.00,,,0.00,Wunderground v.1.15,2013-06-03 14:28:00,
2013-06-03 09:34:00,60.5,47.0,30.10,WSW,246,1.0,8.0,61,0.00,,,0.00,Wunderground v.1.15,2013-06-03 14:34:00,
2013-06-03 09:40:00,60.5,46.1,30.09,WSW,254,2.0,8.0,59,0.00,,,0.00,Wunderground v.1.15,2013-06-03 14:40:00,
2013-06-03 09:46:00,60.6,46.2,30.09,West,262,2.0,8.0,59,0.00,,,0.00,Wunderground v.1.15,2013-06-03 14:46:00,
2013-06-03 09:52:00,60.7,45.8,30.09,SW,217,1.0,8.0,58,0.00,,,0.00,Wunderground v.1.15,2013-06-03 14:52:00,
2013-06-03 09:58:00,61.1,47.1,30.09,SE,129,1.0,8.0,60,0.00,,,0.00,Wunderground v.1.15,2013-06-03 14:58:00,
2013-06-03 10:03:00,61.4,45.6,30.08,SW,229,0.0,8.0,56,0.00,,,0.00,Wunderground v.1.15,2013-06-03 15:03:00,
2013-06-03 10:10:00,61.7,45.4,30.08,SW,235,1.0,1.0,55,0.00,,,0.00,Wunderground v.1.15,2013-06-03 15:10:00,
2013-06-03 10:16:00,61.8,46.4,30.08,SW,226,1.0,8.0,57,0.00,,,0.00,Wunderground v.1.15,2013-06-03 15:16:00,
2013-06-03 10:22:00,61.8,46.4,30.08,SSW,205,1.0,8.0,57,0.00,,,0.00,Wunderground v.1.15,2013-06-03 15:22:00,
2013-06-03 10:27:00,62.1,46.2,30.08,ESE,117,1.0,8.0,56,0.00,,,0.00,Wunderground v.1.15,2013-06-03 15:27:00,
2013-06-03 10:34:00,61.9,45.1,30.08,South,176,1.0,8.0,54,0.00,,,0.00,Wunderground v.1.15,2013-06-03 15:34:00,
2013-06-03 10:40:00,62.3,44.4,30.08,SE,130,1.0,1.0,52,0.00,,,0.00,Wunderground v.1.15,2013-06-03 15:40:00,
2013-06-03 10:46:00,62.6,45.2,30.07,SE,136,1.0,8.0,53,0.00,,,0.00,Wunderground v.1.15,2013-06-03 15:46:00,
2013-06-03 10:52:00,62.6,42.1,30.07,ENE,64,2.0,3.0,47,0.00,,,0.00,Wunderground v.1.15,2013-06-03 15:52:00,
2013-06-03 10:58:00,62.8,44.9,30.08,SE,130,2.0,8.0,52,0.00,,,0.00,Wunderground v.1.15,2013-06-03 15:58:00,
2013-06-03 11:04:00,63.0,44.6,30.07,SE,135,1.0,8.0,51,0.00,,,0.00,Wunderground v.1.15,2013-06-03 16:04:00,
2013-06-03 11:10:00,63.5,45.0,30.07,ESE,104,1.0,8.0,51,0.00,,,0.00,Wunderground v.1.15,2013-06-03 16:10:00,
2013-06-03 11:16:00,63.3,45.4,30.07,SE,135,2.0,8.0,52,0.00,,,0.00,Wunderground v.1.15,2013-06-03 16:16:00,
2013-06-03 11:22:00,63.5,45.0,30.08,NE,34,2.0,8.0,51,0.00,,,0.00,Wunderground v.1.15,2013-06-03 16:22:00,
2013-06-03 11:28:00,63.5,46.1,30.07,WSW,239,2.0,8.0,53,0.00,,,0.00,Wunderground v.1.15,2013-06-03 16:28:00,
2013-06-03 11:34:00,63.9,46.4,30.07,SE,139,3.0,8.0,53,0.00,,,0.00,Wunderground v.1.15,2013-06-03 16:34:00,
2013-06-03 11:40:00,64.3,46.3,30.07,WNW,293,2.0,2.0,52,0.00,,,0.00,Wunderground v.1.15,2013-06-03 16:40:00,
2013-06-03 11:46:00,64.8,45.7,30.07,SE,124,1.0,8.0,50,0.00,,,0.00,Wunderground v.1.15,2013-06-03 16:46:00,
2013-06-03 11:52:00,64.7,45.6,30.07,SE,135,3.0,8.0,50,0.00,,,0.00,Wunderground v.1.15,2013-06-03 16:52:00,
2013-06-03 11:58:00,64.6,45.5,30.07,SW,232,4.0,8.0,50,0.00,,,0.00,Wunderground v.1.15,2013-06-03 16:58:00,
2013-06-03 12:04:00,65.1,46.5,30.08,ESE,122,2.0,8.0,51,0.00,,,0.00,Wunderground v.1.15,2013-06-03 17:04:00,
2013-06-03 12:10:00,65.2,45.0,30.07,ESE,112,2.0,8.0,48,0.00,,,0.00,Wunderground v.1.15,2013-06-03 17:10:00,
2013-06-03 12:16:00,65.2,45.5,30.07,NE,49,2.0,8.0,49,0.00,,,0.00,Wunderground v.1.15,2013-06-03 17:16:00,
2013-06-03 12:22:00,65.0,45.4,30.07,NE,51,2.0,8.0,49,0.00,,,0.00,Wunderground v.1.15,2013-06-03 17:22:00,
2013-06-03 12:28:00,65.3,47.2,30.07,NE,51,2.0,8.0,52,0.00,,,0.00,Wunderground v.1.15,2013-06-03 17:28:00,
2013-06-03 12:34:00,65.5,46.9,30.06,East,90,1.0,8.0,51,0.00,,,0.00,Wunderground v.1.15,2013-06-03 17:34:00,
2013-06-03 12:40:00,65.9,47.3,30.06,SSW,203,1.0,1.0,51,0.00,,,0.00,Wunderground v.1.15,2013-06-03 17:40:00,
2013-06-03 12:46:00,67.3,48.0,30.05,SSE,155,1.0,8.0,50,0.00,,,0.00,Wunderground v.1.15,2013-06-03 17:46:00,
2013-06-03 12:52:00,67.2,46.8,30.05,SE,137,1.0,8.0,48,0.00,,,0.00,Wunderground v.1.15,2013-06-03 17:52:00,
2013-06-03 12:58:00,67.2,47.4,30.05,ENE,63,2.0,8.0,49,0.00,,,0.00,Wunderground v.1.15,2013-06-03 17:58:00,
2013-06-03 13:04:00,66.3,46.0,30.05,SE,124,3.0,8.0,48,0.00,,,0.00,Wunderground v.1.15,2013-06-03 18:04:00,
2013-06-03 13:10:00,66.6,46.3,30.05,ESE,122,2.0,2.0,48,0.00,,,0.00,Wunderground v.1.15,2013-06-03 18:10:00,
2013-06-03 13:16:00,67.1,44.4,30.05,ESE,117,2.0,8.0,44,0.00,,,0.00,Wunderground v.1.15,2013-06-03 18:16:00,
2013-06-03 13:22:00,67.6,46.6,30.05,SE,132,2.0,8.0,47,0.00,,,0.00,Wunderground v.1.15,2013-06-03 18:22:00,
2013-06-03 13:28:00,68.0,44.7,30.05,ENE,68,1.0,8.0,43,0.00,,,0.00,Wunderground v.1.15,2013-06-03 18:28:00,
2013-06-03 13:34:00,67.6,43.7,30.04,SE,136,2.0,8.0,42,0.00,,,0.00,Wunderground v.1.15,2013-06-03 18:34:00,
2013-06-03 13:40:00,67.1,44.4,30.04,NE,53,3.0,3.0,44,0.00,,,0.00,Wunderground v.1.15,2013-06-03 18:40:00,
2013-06-03 13:46:00,67.6,47.2,30.04,SSE,148,2.0,8.0,48,0.00,,,0.00,Wunderground v.1.15,2013-06-03 18:46:00,
2013-06-03 13:52:00,68.0,46.4,30.04,SSW,193,2.0,8.0,46,0.00,,,0.00,Wunderground v.1.15,2013-06-03 18:52:00,
2013-06-03 13:58:00,68.7,45.9,30.03,South,178,1.0,8.0,44,0.00,,,0.00,Wunderground v.1.15,2013-06-03 18:58:00,
2013-06-03 14:04:00,68.4,46.2,30.03,NW,309,2.0,8.0,45,0.00,,,0.00,Wunderground v.1.15,2013-06-03 19:04:00,
2013-06-03 14:10:00,68.4,46.8,30.02,SSE,164,2.0,2.0,46,0.00,,,0.00,Wunderground v.1.15,2013-06-03 19:10:00,
2013-06-03 14:16:00,68.8,46.6,30.02,ESE,119,2.0,8.0,45,0.00,,,0.00,Wunderground v.1.15,2013-06-03 19:16:00,
2013-06-03 14:22:00,68.7,46.5,30.02,SE,125,2.0,8.0,45,0.00,,,0.00,Wunderground v.1.15,2013-06-03 19:22:00,
2013-06-03 14:28:00,67.9,46.3,30.02,NE,56,3.0,8.0,46,0.00,,,0.00,Wunderground v.1.15,2013-06-03 19:28:00,
2013-06-03 14:34:00,68.1,46.5,30.01,NE,41,2.0,8.0,46,0.00,,,0.00,Wunderground v.1.15,2013-06-03 19:34:00,
2013-06-03 14:40:00,68.7,47.1,30.01,NE,56,2.0,8.0,46,0.00,,,0.00,Wunderground v.1.15,2013-06-03 19:40:00,
2013-06-03 14:46:00,68.3,45.5,30.01,East,82,3.0,8.0,44,0.00,,,0.00,Wunderground v.1.15,2013-06-03 19:46:00,
2013-06-03 14:52:00,69.1,46.9,30.00,ESE,122,2.0,8.0,45,0.00,,,0.00,Wunderground v.1.15,2013-06-03 19:52:00,
2013-06-03 14:58:00,69.1,46.9,30.00,ESE,123,3.0,8.0,45,0.00,,,0.00,Wunderground v.1.15,2013-06-03 19:58:00,
2013-06-03 15:04:00,68.9,46.7,30.00,North,360,3.0,8.0,45,0.00,,,0.00,Wunderground v.1.15,2013-06-03 20:04:00,
2013-06-03 15:10:00,69.0,47.9,30.01,SE,130,2.0,2.0,47,0.00,,,0.00,Wunderground v.1.15,2013-06-03 20:10:00,
2013-06-03 15:16:00,69.2,45.1,30.01,East,80,2.0,8.0,42,0.00,,,0.00,Wunderground v.1.15,2013-06-03 20:16:00,
2013-06-03 15:22:00,69.1,45.7,30.00,SE,133,2.0,8.0,43,0.00,,,0.00,Wunderground v.1.15,2013-06-03 20:22:00,
2013-06-03 15:28:00,69.5,45.4,30.00,East,101,2.0,8.0,42,0.00,,,0.00,Wunderground v.1.15,2013-06-03 20:28:00,
2013-06-03 15:34:00,70.0,45.2,30.00,SE,128,1.0,8.0,41,0.00,,,0.00,Wunderground v.1.15,2013-06-03 20:34:00,
2013-06-03 15:40:00,70.3,45.5,30.00,SE,127,1.0,8.0,41,0.00,,,0.00,Wunderground v.1.15,2013-06-03 20:40:00,
2013-06-03 15:46:00,70.2,45.4,30.00,ESE,123,2.0,8.0,41,0.00,,,0.00,Wunderground v.1.15,2013-06-03 20:46:00,
2013-06-03 15:52:00,70.0,44.6,30.00,SSE,162,3.0,8.0,40,0.00,,,0.00,Wunderground v.1.15,2013-06-03 20:52:00,
2013-06-03 15:58:00,70.1,44.0,29.99,East,89,2.0,8.0,39,0.00,,,0.00,Wunderground v.1.15,2013-06-03 20:58:00,
2013-06-03 16:04:00,69.8,43.7,30.00,ESE,115,3.0,8.0,39,0.00,,,0.00,Wunderground v.1.15,2013-06-03 21:04:00,
2013-06-03 16:10:00,70.6,45.1,30.00,SE,142,2.0,8.0,40,0.00,,,0.00,Wunderground v.1.15,2013-06-03 21:10:00,
2013-06-03 16:15:00,70.6,44.4,30.00,ESE,102,2.0,8.0,39,0.00,,,0.00,Wunderground v.1.15,2013-06-03 21:15:00,
2013-06-03 16:22:00,71.1,45.5,29.99,ESE,120,2.0,8.0,40,0.00,,,0.00,Wunderground v.1.15,2013-06-03 21:22:00,
2013-06-03 16:28:00,70.6,45.1,29.99,ENE,72,2.0,8.0,40,0.00,,,0.00,Wunderground v.1.15,2013-06-03 21:28:00,
2013-06-03 16:34:00,70.5,45.0,29.99,ESE,106,3.0,8.0,40,0.00,,,0.00,Wunderground v.1.15,2013-06-03 21:34:00,
2013-06-03 16:39:00,71.0,46.7,29.99,SE,137,2.0,8.0,42,0.00,,,0.00,Wunderground v.1.15,2013-06-03 21:39:00,
2013-06-03 16:46:00,71.3,45.7,29.98,SE,141,2.0,8.0,40,0.00,,,0.00,Wunderground v.1.15,2013-06-03 21:46:00,
2013-06-03 16:52:00,70.5,45.0,29.98,ESE,116,3.0,8.0,40,0.00,,,0.00,Wunderground v.1.15,2013-06-03 21:52:00,
2013-06-03 16:58:00,70.4,45.6,29.98,SSE,161,3.0,8.0,41,0.00,,,0.00,Wunderground v.1.15,2013-06-03 21:58:00,
2013-06-03 17:04:00,70.8,45.9,29.98,East,96,3.0,8.0,41,0.00,,,0.00,Wunderground v.1.15,2013-06-03 22:04:00,
2013-06-03 17:10:00,71.1,45.5,29.98,SSW,213,3.0,8.0,40,0.00,,,0.00,Wunderground v.1.15,2013-06-03 22:10:00,
2013-06-03 17:16:00,70.9,44.7,29.98,SSE,150,3.0,8.0,39,0.00,,,0.00,Wunderground v.1.15,2013-06-03 22:16:00,
2013-06-03 17:22:00,71.0,45.5,29.98,NNW,348,3.0,8.0,40,0.00,,,0.00,Wunderground v.1.15,2013-06-03 22:22:00,
2013-06-03 17:28:00,70.9,46.0,29.98,SE,140,3.0,8.0,41,0.00,,,0.00,Wunderground v.1.15,2013-06-03 22:28:00,
2013-06-03 17:34:00,71.5,45.9,29.98,SE,142,3.0,8.0,40,0.00,,,0.00,Wunderground v.1.15,2013-06-03 22:34:00,
2013-06-03 17:40:00,71.4,45.8,29.98,SSE,149,3.0,3.0,40,0.00,,,0.00,Wunderground v.1.15,2013-06-03 22:40:00,
2013-06-03 17:46:00,71.4,46.5,29.99,SE,141,3.0,8.0,41,0.00,,,0.00,Wunderground v.1.15,2013-06-03 22:46:00,
2013-06-03 17:51:00,71.4,47.1,29.99,ESE,123,3.0,8.0,42,0.00,,,0.00,Wunderground v.1.15,2013-06-03 22:51:00,
2013-06-03 17:58:00,71.0,46.1,29.99,SE,131,4.0,8.0,41,0.00,,,0.00,Wunderground v.1.15,2013-06-03 22:58:00,
2013-06-03 18:04:00,71.0,45.5,29.98,SW,231,3.0,8.0,40,0.00,,,0.00,Wunderground v.1.15,2013-06-03 23:04:00,
2013-06-03 18:10:00,71.1,44.9,29.99,SE,146,3.0,8.0,39,0.00,,,0.00,Wunderground v.1.15,2013-06-03 23:10:00,
2013-06-03 18:16:00,70.8,45.3,29.98,SSE,148,4.0,8.0,40,0.00,,,0.00,Wunderground v.1.15,2013-06-03 23:16:00,
2013-06-03 18:22:00,70.4,45.6,29.99,ESE,120,4.0,8.0,41,0.00,,,0.00,Wunderground v.1.15,2013-06-03 23:22:00,
2013-06-03 18:28:00,70.3,44.2,29.98,ESE,110,4.0,8.0,39,0.00,,,0.00,Wunderground v.1.15,2013-06-03 23:28:00,
2013-06-03 18:34:00,70.4,46.2,29.99,ESE,122,3.0,8.0,42,0.00,,,0.00,Wunderground v.1.15,2013-06-03 23:34:00,
2013-06-03 18:40:00,70.2,46.0,29.99,SE,139,4.0,8.0,42,0.00,,,0.00,Wunderground v.1.15,2013-06-03 23:40:00,
2013-06-03 18:46:00,70.2,46.0,29.99,ESE,117,4.0,8.0,42,0.00,,,0.00,Wunderground v.1.15,2013-06-03 23:46:00,
2013-06-03 18:52:00,70.0,45.2,29.98,ESE,123,4.0,8.0,41,0.00,,,0.00,Wunderground v.1.15,2013-06-03 23:52:00,
2013-06-03 18:58:00,69.9,45.8,29.98,ESE,120,4.0,8.0,42,0.00,,,0.00,Wunderground v.1.15,2013-06-03 23:58:00,
2013-06-03 19:04:00,69.8,45.7,29.98,SE,137,5.0,8.0,42,0.00,,,0.00,Wunderground v.1.15,2013-06-04 00:04:00,
2013-06-03 19:09:00,69.7,44.9,29.98,SE,132,5.0,5.0,41,0.00,,,0.00,Wunderground v.1.15,2013-06-04 00:09:00,
2013-06-03 19:16:00,69.7,45.6,29.98,ESE,108,4.0,8.0,42,0.00,,,0.00,Wunderground v.1.15,2013-06-04 00:16:00,
2013-06-03 19:22:00,69.6,46.1,29.98,SE,146,5.0,8.0,43,0.00,,,0.00,Wunderground v.1.15,2013-06-04 00:22:00,
2013-06-03 19:28:00,69.5,46.0,29.98,East,91,5.0,8.0,43,0.00,,,0.00,Wunderground v.1.15,2013-06-04 00:28:00,
2013-06-03 19:33:00,69.4,46.5,29.98,SE,141,4.0,8.0,44,0.00,,,0.00,Wunderground v.1.15,2013-06-04 00:33:00,
2013-06-03 19:40:00,69.2,46.4,29.98,SSE,152,5.0,5.0,44,0.00,,,0.00,Wunderground v.1.15,2013-06-04 00:40:00,
2013-06-03 19:46:00,69.1,46.9,29.98,SE,135,5.0,8.0,45,0.00,,,0.00,Wunderground v.1.15,2013-06-04 00:46:00,
2013-06-03 19:52:00,68.9,47.3,29.98,SE,143,4.0,8.0,46,0.00,,,0.00,Wunderground v.1.15,2013-06-04 00:52:00,
2013-06-03 19:58:00,68.4,47.4,29.98,ESE,114,4.0,8.0,47,0.00,,,0.00,Wunderground v.1.15,2013-06-04 00:58:00,
2013-06-03 20:04:00,67.9,47.5,29.98,SE,143,4.0,8.0,48,0.00,,,0.00,Wunderground v.1.15,2013-06-04 01:04:00,
2013-06-03 20:10:00,67.5,47.7,29.98,SE,134,4.0,8.0,49,0.00,,,0.00,Wunderground v.1.15,2013-06-04 01:10:00,
2013-06-03 20:16:00,67.2,48.5,29.98,SE,136,4.0,8.0,51,0.00,,,0.00,Wunderground v.1.15,2013-06-04 01:16:00,
2013-06-03 20:22:00,66.8,48.1,29.98,SE,140,4.0,8.0,51,0.00,,,0.00,Wunderground v.1.15,2013-06-04 01:22:00,
2013-06-03 20:28:00,66.4,48.2,29.98,ESE,115,4.0,8.0,52,0.00,,,0.00,Wunderground v.1.15,2013-06-04 01:28:00,
2013-06-03 20:34:00,66.2,48.0,29.98,SE,133,3.0,8.0,52,0.00,,,0.00,Wunderground v.1.15,2013-06-04 01:34:00,
2013-06-03 20:40:00,65.8,48.2,29.98,ESE,119,4.0,4.0,53,0.00,,,0.00,Wunderground v.1.15,2013-06-04 01:40:00,
2013-06-03 20:45:00,65.5,48.4,29.97,ESE,113,3.0,8.0,54,0.00,,,0.00,Wunderground v.1.15,2013-06-04 01:45:00,
2013-06-03 20:52:00,65.2,48.6,29.98,SE,130,3.0,8.0,55,0.00,,,0.00,Wunderground v.1.15,2013-06-04 01:52:00,
2013-06-03 20:58:00,64.9,48.8,29.98,SE,143,3.0,8.0,56,0.00,,,0.00,Wunderground v.1.15,2013-06-04 01:58:00,
2013-06-03 21:04:00,64.5,48.9,29.99,SSE,147,2.0,8.0,57,0.00,,,0.00,Wunderground v.1.15,2013-06-04 02:04:00,
2013-06-03 21:09:00,64.4,49.3,29.99,ESE,115,2.0,8.0,58,0.00,,,0.00,Wunderground v.1.15,2013-06-04 02:09:00,
2013-06-03 21:16:00,64.3,49.2,29.99,SE,133,3.0,8.0,58,0.00,,,0.00,Wunderground v.1.15,2013-06-04 02:16:00,
2013-06-03 21:22:00,63.9,48.8,29.99,ESE,119,3.0,8.0,58,0.00,,,0.00,Wunderground v.1.15,2013-06-04 02:22:00,
2013-06-03 21:28:00,63.7,49.5,29.99,SE,129,2.0,8.0,60,0.00,,,0.00,Wunderground v.1.15,2013-06-04 02:28:00,
2013-06-03 21:34:00,63.5,49.4,29.99,SE,129,2.0,8.0,60,0.00,,,0.00,Wunderground v.1.15,2013-06-04 02:34:00,
2013-06-03 21:40:00,63.2,49.1,29.99,SE,130,2.0,8.0,60,0.00,,,0.00,Wunderground v.1.15,2013-06-04 02:40:00,
2013-06-03 21:46:00,63.1,49.4,30.00,SE,141,3.0,8.0,61,0.00,,,0.00,Wunderground v.1.15,2013-06-04 02:46:00,
2013-06-03 21:52:00,62.8,49.6,30.00,SSE,149,2.0,8.0,62,0.00,,,0.00,Wunderground v.1.15,2013-06-04 02:52:00,
2013-06-03 21:58:00,62.6,49.4,30.00,SE,136,2.0,8.0,62,0.00,,,0.00,Wunderground v.1.15,2013-06-04 02:58:00,
2013-06-03 22:04:00,62.4,49.2,30.01,SE,146,2.0,8.0,62,0.00,,,0.00,Wunderground v.1.15,2013-06-04 03:04:00,
2013-06-03 22:10:00,62.3,49.5,30.01,SE,144,2.0,8.0,63,0.00,,,0.00,Wunderground v.1.15,2013-06-04 03:10:00,
2013-06-03 22:16:00,62.2,49.4,30.01,ESE,113,3.0,8.0,63,0.00,,,0.00,Wunderground v.1.15,2013-06-04 03:16:00,
2013-06-03 22:22:00,62.1,49.8,30.02,SE,139,3.0,8.0,64,0.00,,,0.00,Wunderground v.1.15,2013-06-04 03:22:00,
2013-06-03 22:28:00,61.9,49.6,30.02,SE,140,2.0,8.0,64,0.00,,,0.00,Wunderground v.1.15,2013-06-04 03:28:00,
2013-06-03 22:33:00,61.7,49.4,30.02,SSE,147,2.0,8.0,64,0.00,,,0.00,Wunderground v.1.15,2013-06-04 03:33:00,
2013-06-03 22:40:00,61.6,49.7,30.02,SE,129,2.0,8.0,65,0.00,,,0.00,Wunderground v.1.15,2013-06-04 03:40:00,
2013-06-03 22:46:00,61.5,49.6,30.03,SSE,155,2.0,8.0,65,0.00,,,0.00,Wunderground v.1.15,2013-06-04 03:46:00,
2013-06-03 22:52:00,61.4,49.5,30.03,SSE,148,1.0,8.0,65,0.00,,,0.00,Wunderground v.1.15,2013-06-04 03:52:00,
2013-06-03 22:58:00,61.2,49.3,30.03,SSE,150,1.0,8.0,65,0.00,,,0.00,Wunderground v.1.15,2013-06-04 03:58:00,
2013-06-03 23:02:00,61.1,49.7,30.04,SSE,155,1.0,8.0,66,0.00,,,0.00,Wunderground v.1.15,2013-06-04 04:02:00,
2013-06-03 23:06:00,60.9,49.5,30.03,SSE,158,1.0,8.0,66,0.00,,,0.00,Wunderground v.1.15,2013-06-04 04:06:00,
2013-06-03 23:10:00,60.7,49.3,30.03,SE,143,1.0,8.0,66,0.00,,,0.00,Wunderground v.1.15,2013-06-04 04:10:00,
2013-06-03 23:12:00,60.7,49.7,30.04,SE,133,1.0,8.0,67,0.00,,,0.00,Wunderground v.1.15,2013-06-04 04:12:00,
2013-06-03 23:14:00,60.6,49.6,30.04,SE,144,1.0,8.0,67,0.00,,,0.00,Wunderground v.1.15,2013-06-04 04:14:00,
2013-06-03 23:20:00,60.5,49.5,30.04,SE,134,1.0,8.0,67,0.00,,,0.00,Wunderground v.1.15,2013-06-04 04:20:00,
2013-06-03 23:26:00,60.4,49.4,30.04,SE,143,1.0,8.0,67,0.00,,,0.00,Wunderground v.1.15,2013-06-04 04:26:00,
2013-06-03 23:32:00,60.4,49.4,30.04,SSE,150,1.0,8.0,67,0.00,,,0.00,Wunderground v.1.15,2013-06-04 04:32:00,
2013-06-03 23:38:00,60.3,49.3,30.05,SE,139,1.0,8.0,67,0.00,,,0.00,Wunderground v.1.15,2013-06-04 04:38:00,
2013-06-03 23:44:00,60.3,49.7,30.05,SE,146,1.0,8.0,68,0.00,,,0.00,Wunderground v.1.15,2013-06-04 04:44:00,
2013-06-03 23:50:00,60.4,49.8,30.05,ESE,120,2.0,8.0,68,0.00,,,0.00,Wunderground v.1.15,2013-06-04 04:50:00,
2013-06-03 23:56:00,60.3,50.1,30.05,SE,138,2.0,8.0,69,0.00,,,0.00,Wunderground v.1.15,2013-06-04 04:56:00,